Location: Bogis-Bossey
(46.3500°N, 6.1667°E)
Time: 18:29:55
(UTC+00:00)

Meteor 1-18 Rocket - Pass Details

Date: 17 August 2022
Orbit: 836 x 909 km, 81.2° (Epoch: 30 September)

Event Time Altitude Azimuth Distance (km) Brightness Sun altitude
Rises 21:07:44 0° 348° (NNW) 3,530 8.5 -21.4°
Reaches altitude 10° 21:10:13 10° 348° (NNW) 2,577 7.6 -21.7°
Maximum altitude 21:16:06 87° 260° (W) 891 4.2 -22.3°
Enters shadow 21:18:05 44° 174° (S) 1,201 4.6 -22.5°
